Hourly Data Report for July 07, 2004

TORONTO CITY
ONTARIO

43°40'00.000" N
79°24'00.000" W
112.50 m
6158355
71508
XTO

Download Data

Hourly Data (July 2004)
Hourly Data Report for July 7, 2004
TIME
LST
Temp Definition
°C
Dew Point Definition
°C
Rel Hum Definition
%
Precip. Amount Definition
mm

Wind Dir Definition
10's deg

Wind Spd Definition
km/h
Visibility Definition
km
Stn Press Definition
kPa
Hmdx Definition


Wind Chill Definition


Weather Definition


00:00 18.3 13.4 73   LegendMM LegendMM LegendMM 99.69     LegendNANA
01:00 18.2 14.1 77   LegendMM LegendMM LegendMM 99.61     LegendNANA
02:00 18.3 14.2 77   LegendMM LegendMM LegendMM 99.57     LegendNANA
03:00 16.8 16.2 96   LegendMM LegendMM LegendMM 99.50     LegendNANA
04:00 16.7 16.1 96   LegendMM LegendMM LegendMM 99.46     LegendNANA
05:00 16.8 16.2 96   LegendMM LegendMM LegendMM 99.53     LegendNANA
06:00 17.1 16.6 97   LegendMM LegendMM LegendMM 99.51     LegendNANA
07:00 18.1 17.2 94   LegendMM LegendMM LegendMM 99.45     LegendNANA
08:00 17.8 16.4 92   LegendMM LegendMM LegendMM 99.43     LegendNANA
09:00 17.3 16.3 94   LegendMM LegendMM LegendMM 99.46     LegendNANA
10:00 17.8 16.7 93   LegendMM LegendMM LegendMM 99.49     LegendNANA
11:00 19.5 17.8 90   LegendMM LegendMM LegendMM 99.49     LegendNANA
12:00 20.4 18.6 89   LegendMM LegendMM LegendMM 99.44 27   LegendNANA
13:00 23.5 19.8 80   LegendMM LegendMM LegendMM 99.36 31   LegendNANA
14:00 24.1 19.3 75   LegendMM LegendMM LegendMM 99.33 31   LegendNANA
15:00 21.5 19.4 88   LegendMM LegendMM LegendMM 99.31 29   LegendNANA
16:00 22.5 20.5 88   LegendMM LegendMM LegendMM 99.27 30   LegendNANA
17:00 23.0 20.1 84   LegendMM LegendMM LegendMM 99.19 31   LegendNANA
18:00 22.2 19.8 86   LegendMM LegendMM LegendMM 99.21 30   LegendNANA
19:00 21.9 19.8 88   LegendMM LegendMM LegendMM 99.28 29   LegendNANA
20:00 20.5 19.5 94   LegendMM LegendMM LegendMM 99.23 28   LegendNANA
21:00 19.8 19.3 97   LegendMM LegendMM LegendMM 99.29     LegendNANA
22:00 19.6 19.2 98   LegendMM LegendMM LegendMM 99.32     LegendNANA
23:00 18.7 18.3 98   LegendMM LegendMM LegendMM 99.31     LegendNANA

Notes on Data Quality.

Legend

  • E = Estimated
  • M = Missing
  • NA = Not Available*
  • [empty] = Indicates an unobserved value
Date modified: